Monroe, MI

6:18 PM EST on February 10, 2016 (GMT -0500)
Custer

Weather History for KTTF - September, 2014

Change the Weather History Date:

Wednesday, September 17, 2014

  Actual Average Record
Temperature  
Mean Temperature 54 °F -  
Max Temperature 68 °F 71 °F 100 °F (1939)
Min Temperature 41 °F 53 °F 34 °F (1959)
Degree Days  
Heating Degree Days 10    
Growing Degree Days 4 (Base 50)    
Moisture  
Dew Point 44 °F    
Average Humidity 76    
Maximum Humidity 100    
Minimum Humidity 37    
Precipitation  
Precipitation 0.00 in - - ()
Sea Level Pressure  
Sea Level Pressure 30.02 in    
Wind  
Wind Speed 2 mph (West)    
Max Wind Speed 12 mph    
Max Gust Speed 17 mph    
Visibility 10 miles    
Events      
Averages and records for this station are not official NWS values.
T = Trace of Precipitation, MM = Missing Value Source: NWS Daily Summary

Daily Weather History Graph

Daily Weather History Graph

Search for Another Location

Airport or City:

Trip Planner

Search our weather history database for the weather conditions in past years. The results will help you decide how hot, cold, wet, or windy it might be!

Date:

Astronomy

Sep. 17, 2014 Rise Set
Actual Time 7:15 AM EDT 7:39 PM EDT
Civil Twilight 6:47 AM EDT 8:07 PM EDT
Nautical Twilight 6:15 AM EDT 8:40 PM EDT
Astronomical Twilight 5:41 AM EDT 9:14 PM EDT
Moon 1:10 AM EDT (9/17) 3:52 PM EDT (9/17)
Length of Visible Light 13h 19m
Length of Day
12h 23m
Waning Crescent, 35% of the Moon is Illuminated
Sep 17
Waning Crescent
Sep 24
New
Oct 1
First Quarter
Oct 8
Full
Oct 15
Last Quarter

Hourly Weather History & Observations

Time (EDT) Temp. Windchill Dew Point Humidity Pressure Visibility Wind Dir Wind Speed Gust Speed Precip Events Conditions
12:12 AM 48.2 °F - 46.4 °F 93% 30.08 in 10.0 mi Calm Calm - N/A   Clear
12:32 AM 46.4 °F 45.2 °F 44.6 °F 93% 30.08 in 10.0 mi WNW 3.5 mph - N/A   Clear
12:52 AM 46.4 °F - 44.6 °F 93% 30.08 in 10.0 mi Calm Calm - N/A   Clear
1:12 AM 46.4 °F - 44.6 °F 93% 30.07 in 10.0 mi Calm Calm - N/A   Clear
1:32 AM 46.4 °F - 44.6 °F 93% 30.07 in 10.0 mi Calm Calm - N/A   Clear
1:53 AM 46.4 °F - 44.6 °F 93% 30.07 in 10.0 mi Calm Calm - N/A   Clear
2:13 AM 46.4 °F - 44.6 °F 93% 30.07 in 7.0 mi Calm Calm - N/A   Clear
2:33 AM 44.6 °F - 44.6 °F 100% 30.06 in 4.0 mi Calm Calm - N/A   Clear
2:53 AM 46.4 °F - 44.6 °F 93% 30.06 in 10.0 mi Calm Calm - N/A   Clear
3:13 AM 44.6 °F - 42.8 °F 93% 30.06 in 10.0 mi Calm Calm - N/A   Clear
3:33 AM 44.6 °F - 42.8 °F 93% 30.06 in 10.0 mi Calm Calm - N/A   Clear
3:53 AM 44.6 °F - 42.8 °F 93% 30.06 in 10.0 mi Calm Calm - N/A   Clear
4:13 AM 44.6 °F - 42.8 °F 93% 30.06 in 10.0 mi Calm Calm - N/A   Clear
4:33 AM 42.8 °F - 41.0 °F 93% 30.06 in 7.0 mi Calm Calm - N/A   Clear
4:39 AM 42.8 °F - 42.8 °F 100% 30.06 in 10.0 mi Calm Calm - N/A   Clear
4:59 AM 44.6 °F - 42.8 °F 93% 30.05 in 10.0 mi Calm Calm - N/A   Clear
5:34 AM 42.8 °F - 41.0 °F 93% 30.05 in 7.0 mi Calm Calm - N/A   Clear
5:53 AM 42.8 °F - 41.0 °F 93% 30.05 in 10.0 mi Calm Calm - N/A   Clear
6:14 AM 42.8 °F - 39.2 °F 87% 30.05 in 10.0 mi Calm Calm - N/A   Clear
6:32 AM 41.0 °F - 39.2 °F 93% 30.06 in 7.0 mi Calm Calm - N/A   Clear
6:54 AM 41.0 °F - 39.2 °F 93% 30.06 in 10.0 mi Calm Calm - N/A   Clear
7:04 AM 41.0 °F - 39.2 °F 93% 30.06 in 7.0 mi Calm Calm - N/A   Clear
7:34 AM 42.8 °F - 41.0 °F 93% 30.05 in 7.0 mi Calm Calm - N/A   Clear
7:54 AM 42.8 °F - 42.8 °F 100% 30.06 in 5.0 mi Calm Calm - N/A   Clear
8:15 AM 44.6 °F - 44.6 °F 100% 30.06 in 7.0 mi Calm Calm - N/A   Clear
8:35 AM 46.4 °F - 44.6 °F 93% 30.06 in 10.0 mi Calm Calm - N/A   Clear
8:55 AM 48.2 °F - 46.4 °F 93% 30.06 in 10.0 mi Calm Calm - N/A   Clear
9:15 AM 50.0 °F - 46.4 °F 87% 30.06 in 10.0 mi Calm Calm - N/A   Clear
9:30 AM 51.8 °F - 46.4 °F 82% 30.06 in 10.0 mi WNW 3.5 mph - N/A   Clear
9:50 AM 53.6 °F - 48.2 °F 82% 30.05 in 10.0 mi West 3.5 mph - N/A   Clear
10:10 AM 55.4 °F - 48.2 °F 77% 30.05 in 10.0 mi West 3.5 mph - N/A   Clear
10:30 AM 57.2 °F - 46.4 °F 67% 30.05 in 10.0 mi WSW 8.1 mph - N/A   Clear
10:50 AM 57.2 °F - 46.4 °F 67% 30.04 in 10.0 mi WNW 8.1 mph - N/A   Clear
11:10 AM 57.2 °F - 46.4 °F 67% 30.03 in 10.0 mi WNW 6.9 mph - N/A   Clear
11:30 AM 59.0 °F - 44.6 °F 59% 30.03 in 10.0 mi SW 8.1 mph - N/A   Clear
11:44 AM 59.0 °F - 44.6 °F 59% 30.03 in 10.0 mi WSW 6.9 mph - N/A   Clear
12:11 PM 60.8 °F - 44.6 °F 55% 30.02 in 10.0 mi West 4.6 mph - N/A   Clear
12:30 PM 60.8 °F - 42.8 °F 52% 30.01 in 10.0 mi West 5.8 mph - N/A   Clear
1:11 PM 62.6 °F - 41.0 °F 45% 30.01 in 10.0 mi West 4.6 mph - N/A   Clear
1:31 PM 64.4 °F - 42.8 °F 45% 30.01 in 10.0 mi WSW 9.2 mph - N/A   Clear
2:11 PM 64.4 °F - 42.8 °F 45% 30.00 in 10.0 mi WSW 5.8 mph - N/A   Clear
2:31 PM 66.2 °F - 44.6 °F 46% 30.00 in 10.0 mi West 8.1 mph - N/A   Clear
2:51 PM 66.2 °F - 44.6 °F 46% 29.99 in 10.0 mi WNW 8.1 mph - N/A   Clear
3:11 PM 66.2 °F - 42.8 °F 43% 29.99 in 10.0 mi WNW 5.8 mph - N/A   Clear
3:32 PM 66.2 °F - 42.8 °F 43% 29.98 in 10.0 mi West 4.6 mph - N/A   Clear
3:52 PM 68.0 °F - 42.8 °F 40% 29.98 in 10.0 mi West 6.9 mph 17.3 mph N/A   Clear
4:12 PM 66.2 °F - 42.8 °F 43% 29.97 in 10.0 mi SW 4.6 mph - N/A   Clear
4:32 PM 68.0 °F - 41.0 °F 37% 29.97 in 10.0 mi West 11.5 mph - N/A   Clear
4:52 PM 68.0 °F - 41.0 °F 37% 29.97 in 10.0 mi WSW 8.1 mph - N/A   Clear
5:12 PM 68.0 °F - 41.0 °F 37% 29.97 in 10.0 mi West 8.1 mph - N/A   Clear
5:32 PM 68.0 °F - 42.8 °F 40% 29.97 in 10.0 mi West 6.9 mph - N/A   Clear
5:52 PM 66.2 °F - 42.8 °F 43% 29.96 in 10.0 mi West 3.5 mph - N/A   Clear
5:56 PM 68.0 °F - 42.8 °F 40% 29.96 in 10.0 mi WNW 4.6 mph - N/A   Clear
6:32 PM 66.2 °F - 44.6 °F 46% 29.97 in 10.0 mi NW 4.6 mph - N/A   Clear
6:38 PM 64.4 °F - 44.6 °F 49% 29.97 in 10.0 mi NNW 3.5 mph - N/A   Clear
7:13 PM 62.6 °F - 48.2 °F 59% 29.96 in 10.0 mi Calm Calm - N/A   Clear
7:33 PM 59.0 °F - 48.2 °F 67% 29.96 in 10.0 mi Calm Calm - N/A   Clear
7:53 PM 55.4 °F - 48.2 °F 77% 29.97 in 10.0 mi Calm Calm - N/A   Scattered Clouds
8:33 PM 53.6 °F - 48.2 °F 82% 29.97 in 10.0 mi Calm Calm - N/A   Scattered Clouds
8:53 PM 53.6 °F - 48.2 °F 82% 29.98 in 10.0 mi Calm Calm - N/A   Scattered Clouds
9:13 PM 51.8 °F - 46.4 °F 82% 29.98 in 10.0 mi Calm Calm - N/A   Scattered Clouds
9:54 PM 51.8 °F - 46.4 °F 82% 29.98 in 10.0 mi Calm Calm - N/A   Clear
10:13 PM 50.0 °F - 46.4 °F 87% 29.98 in 10.0 mi Calm Calm - N/A   Clear
10:35 PM 48.2 °F - 46.4 °F 93% 29.99 in 10.0 mi North 1.2 mph - N/A   Clear
10:54 PM 48.2 °F - 46.4 °F 93% 29.99 in 10.0 mi Calm Calm - N/A   Clear
10:55 PM 48.2 °F - 46.4 °F 93% 29.99 in 10.0 mi Calm Calm - N/A   Clear
10:59 PM 48.2 °F - 46.4 °F 93% 30.00 in 10.0 mi Calm Calm - N/A   Clear
11:14 PM 48.2 °F - 46.4 °F 93% 30.00 in 10.0 mi Calm Calm - N/A   Clear
11:34 PM 46.4 °F - 46.4 °F 100% 30.00 in 10.0 mi Calm Calm - N/A   Clear
11:44 PM 46.4 °F - 46.4 °F 100% 30.00 in 10.0 mi Calm Calm - N/A   Clear